AQI (23)

Current Conditions for Foresthill, CA. Sunny, Dry   
Visibility: 10 miles
Space WX Alerts: N/A ( Latest Alert ) - N/A

  Summary / Temperature 

Current Temperature
83.2°F
28.4°C
(24/hr Ago)
92.5°F
(Apparent temp)
85.1°F
Warm
Heat Index
83.6°F 

91.4°F/ 33°C
Noticeable discomfort

 Temp Rate:

 24/hr Difference:

 Avg Running Temp:

 Todays High:

 Todays Low:

 Y-days High:

 Y-days Low:

 Todays HeatIdx:

 Y-days HeatIdx:

 Evapotranspiration:

+1.8°F/hr 

-9.3°F

80.9°F

83.2°F 1:38pm

69.6°F 7:04am

94.3°F 2:11pm

67.2°F 6:30am

83.8°F 1:37pm

92.1°F 6:08pm

0.107 in

115' Above Ground

 Temperature:

 6'AGL VRS 115'AGL:

 Avg Running Temp:

 Humidity:

 Todays High:

 Todays Low:

 Y-days High:

 Y-days Low:

80.0°F 

-3.2°F

80.0°F

48% 

83.0°F 9:21am

73.0°F 2:08am

93.0°F 1:59pm

71.0°F 3:48am

Temp & Humidity Graphs

  Wind 

Wind Speed

 2.0 mph

Gusting to

 10.0 mph

Wind from SW

215°  SW

Light air

 Avg speed:

 Wind Run:

 Peak Gust:

  3.0 mph 

57.0 miles

  24.0 mph 3:11am

  Almanac  

Moon age: 7 days,1 hours,46 minutes,47%

Waxing Crescent
47%
Illuminated
7 days in cycle

 Moonrise:

 Moonset:

 Sunrise:

 Sunset:

 Solar Noon:

12:16pm

1:35am

5:39am

8:20pm

1:01pm

1min 16s more daylight tomorrow 

  Solar Radiation 

(Current Solar)
  967 W/m2 (90%)
(Todays High)
 1194 W/m2@11:45am
Feels like: 100°F in the sun

Rain

 Rain Today:

 Rain Rate (/hr):

 Rain last hour:

 Rain Yesterday:

 This Month:

 Season Total:

8 Days Since Last Rain Day

0.00 in

0.000 in

0.00 in

0.00 in

2.59 in

36.11 in

Updated Time

Updated: 5/29/20  1:38pm

(Updated  sec ago)

Humidity & Barometer

 Humidity:

 Wetbulb:

 Dew Point:

 Barometer:

47% 

69.0°F 

60.9°F 

29.764 inHg 

 Baro Trend:  Steady 
Northern Calif
Preparedness
Fire 
Level 

    UV Index  

(Current UV)
8.6  Very High
(Todays High) @ 12:31pm
9.9   Very High

National Weather Service Forecast

This
Afternoon
This Afternoon: Slight Chance Rain Showers
Slight Chance Rain Showers
Tonight

Tonight: Showers, Thunderstorms
Showers, T-Storms
Saturday

Saturday: Showers, Thunderstorms
Showers, T-Storms
Saturday
Night
Saturday Night: Slight Chance Showers, Thunderstorms then Mostly Cloudy
Slight Chance Showers, T-Storms
Sunday

Sunday: Partly Sunny
Partly Sunny
Sunday
Night
Sunday Night: Mostly Cloudy
Mostly Cloudy
Hi 83 °F ↓ Lo 52 °F ↑ Hi 63 °F ↓ Lo 52 °F Hi 71 °F Lo 55 °F

Foresthill Probe 2 Stats  
Foresthill Probe 2: is located on Thomas Street
at 3000 feet. The main Foresthill Weather site
is located on Melody ln at the 2860 foot elevation

Light Air
85.4°F
29.7°C
Temp Rate:
+2.2°F
1.0 mph
Gusting to
4.0 mph
(Humidity)
46%
Wind from SW
217°  SW
Updated: 29/05/20 - 13:39:13
 Todays High: 85.8°F 13:34
 Todays Low: 67.7°F 03:31
 Rain Today: 0.00 in
 Season Total: 36.30 in

Foresthill Wx: Monthly,Yearly, Highs and Lows 

Foresthill  
This Weather Data is coming from the main Foresthill
Weather site located on Melody ln at the 2860 foot
elevation
Not Foresthill Probe 2
Weather Data
Month
  High
Month
  Low
Year
High
Year
Low
Temp 94.3°F
5/28/20
41.5°F
5/19/20
94.3°F
5/28/20
28.3°F
2/3/20
Humidity 100%
5/18/20
17%
5/9/20
100%
1/8/20
12%
2/17/20
Heat Index 92.1°F
5/28/20
46.8°F
5/4/20
92.1°F
5/28/20
28.2°F
2/4/20
Wind Chill 94.3°F
5/28/20
34.0°F
5/18/20
94.3°F
5/28/20
14.7°F
2/3/20
Wind Gust 26 mph
5/23/20
0 mph
5/1/20
46 mph
2/9/20
0 mph
1/1/20
Barometer 30.20 in
5/4/20
29.75 in
5/29/20
30.59 in
1/5/20
29.66 in
3/13/20
ET 0.27 in
5/28/20
0.00 in
5/1/20
0.27 in
5/28/20
0.00 in
1/1/20
Dew Point 62.4°F
5/29/20
20.3°F
5/4/20
62.4°F
5/29/20
-2.6°F
2/3/20
Visible Satellite Pacific Satellite US Radar Satellite Imagery Sacramento,CA.  (click to enlarge)
NWS Weather Forecast - Summary
Updated: Friday, May 29, 2020 - 3:20am PDT
Thunderstorms with limited rainfall possible Friday night into Saturday morning
NWS Weather Forecast: This Afternoon and Tonight (Updated: Fri, 29-May-2020 9:52am PDT)
This
Afternoon
This Afternoon: Slight Chance Rain Showers
Slight Chance Rain Showers

Hi 83 °F ↓
NWS forecast: A slight chance of rain showers after 5pm. Partly sunny. High near 83, with temperatures falling to around 80 in the afternoon. West southwest wind around 8 mph. Chance of precipitation is 20%.
Tonight

Tonight: Showers, Thunderstorms
Showers, T-Storms

Lo 52 °F ↑
NWS forecast: A slight chance of rain showers before 11pm, then showers and thunderstorms. Cloudy. Low around 52, with temperatures rising to around 54 overnight. Southwest wind 5 to 8 mph. Chance of precipitation is 80%. New rainfall amounts between a quarter and half of an inch possible.
YR.NO 10 Day Weather forecast
Last update: 05/29/2020 @ 06:21
Next update: 05/29/2020 @ 12:27
Provided by: 22
      Temperature Precipitation Pressure Wind  
Today
05/29/2020
13:00 18:00 75°F   29.84 inHg Light breeze from southwest 6 mph
  18:00 00:00 75°F   29.79 inHg Light breeze from southwest 5 mph
    (Click to enlarge)
meteogram

    Forecast for next 9 days

      Temperature Precip Pressure Wind  
Saturday
05/30/2020
00:00 06:00 55°F 0.19 in 29.92 inHg Light air from south-southwest 3 mph
  06:00 12:00 50°F 0.21 in 29.94 inHg Light air from west 1 mph
  12:00 18:00 59°F 0.17 in 29.95 inHg Light air from southwest 3 mph
  18:00 00:00 57°F < 0.01 in 29.93 inHg Light breeze from southeast 4 mph
      Temperature Precip Pressure Wind  
Sunday
05/31/2020
00:00 06:00 48°F   29.94 inHg Light breeze from east 5 mph
  06:00 12:00 45°F   29.92 inHg Light breeze from east-northeast 5 mph
  12:00 18:00 70°F   29.90 inHg Light breeze from west-southwest 7 mph
  17:00 23:00 68°F   29.91 inHg Light breeze from west-southwest 5 mph
  23:00 05:00 57°F   29.94 inHg Light air from east 2 mph
      Temperature Precip Pressure Wind  
Monday
06/01/2020
05:00 11:00 46°F   29.95 inHg Light air from east 3 mph
  11:00 17:00 70°F   29.98 inHg Light air from west 3 mph
  17:00 23:00 68°F 0.02 in 30.00 inHg Light air from southwest 2 mph
  23:00 05:00 57°F   30.01 inHg Light air from east-northeast 3 mph
      Temperature Precip Pressure Wind  
Tuesday
06/02/2020
05:00 11:00 50°F   29.99 inHg Light breeze from east-northeast 5 mph
  11:00 17:00 77°F   30.01 inHg Light breeze from west 4 mph
  17:00 23:00 81°F   29.99 inHg Light breeze from west-southwest 5 mph
  23:00 05:00 57°F   30.03 inHg Light breeze from east 4 mph
      Temperature Precip Pressure Wind  
Wednesday
06/03/2020
05:00 11:00 52°F   29.97 inHg Light breeze from east-northeast 6 mph
  11:00 17:00 86°F   29.93 inHg Light breeze from west 4 mph
  17:00 23:00 86°F   29.86 inHg Light breeze from west 6 mph
  23:00 05:00 59°F   29.85 inHg Light breeze from east 5 mph
      Temperature Precip Pressure Wind  
Thursday
06/04/2020
05:00 11:00 55°F   29.78 inHg Light breeze from east-northeast 6 mph
  11:00 17:00 88°F   29.75 inHg Light breeze from west-southwest 4 mph
  17:00 23:00 86°F   29.66 inHg Light breeze from west-southwest 7 mph
  23:00 05:00 61°F   29.67 inHg Light breeze from east 5 mph
      Temperature Precip Pressure Wind  
Friday
06/05/2020
05:00 11:00 59°F   29.64 inHg Light breeze from east-southeast 4 mph
  11:00 17:00 73°F   29.70 inHg Gentle breeze from south-southwest 11 mph
  17:00 23:00 64°F 0.20 in 29.78 inHg Gentle breeze from south-southwest 10 mph
  23:00 05:00 52°F 0.07 in 29.86 inHg Light breeze from southeast 4 mph
      Temperature Precip Pressure Wind  
Saturday
06/06/2020
05:00 11:00 50°F 0.26 in 29.88 inHg Light breeze from south-southeast 4 mph
  11:00 17:00 54°F 0.52 in 29.93 inHg Gentle breeze from southwest 8 mph
  17:00 23:00 55°F 0.19 in 29.90 inHg Light breeze from south-southwest 4 mph
  23:00 05:00 48°F   29.93 inHg Light breeze from southeast 6 mph
      Temperature Precip Pressure Wind  
Sunday
06/07/2020
05:00 11:00 43°F 0.02 in 30.00 inHg Light breeze from south-southeast 5 mph

NOAA Local Storm Report
3 MILES NORTH-NORTHEAST OF SALEM   ( More )
DATE
05/27/2020
TIME
6:51 PM
COUNTY
LEE
STATE
AL
GEOGRAPHIC
32.64N 85.23W
SOURCE
EMERGENCY MNGR
THUNDERSTORM WIND DAMAGE
multiple trees and power lines down on lee road 252. Time estimated by radar.
How Close Are We To this Month's Temperature Record ?
Updated Friday, May 29, 2020- 1:35:00 PM

Current Temperature: 83.2°F

May's High: Temperature Record 94.3°F - Set on Thu, May 28, 2020 - 2:11:43 PM
We are currently 11.1°F Less than this Month's record High

May's Low: Temperature Record 37.2°F - Set on Mon, May 20, 2019 - 5:45:00 AM
We are currently 46°F More than this Month's record Low

Weather History For Friday, May 29, 2020


On this Day - In Weather History ...
Data courtesy of weatherforyou.com
powered by Cumulus v1.9.3 (1059)
Ambient Weather VWS v14.00
Top Website Map Copyright © 2007 - 2020 Foresthillweather.com Never base important decisions on this or any weather information obtained from the Internet